International Virtual Aviation Organisation

Russian Federation and Kazakhstan MCD

 

Карточка аэропорта UAKK

Внимание!
Информация на этой странице в стадии наполнения.
Если вы не увидели какой-то информации, или заметили неточность - пожалуйста сообщите нам!
Спасибо!
Команда RU-STAFF
Название аэропортаКараганда
Название аэропорта (англ.)Karaganda
Превышение1768 ft. (538.9 m.)
Координаты49°40.302', 73°20.118'
Высота перехода10000
Эшелон переходаby ATC
Коды ответчика0630-0637, 7220-7227
Зона ОрВДНур-Султан РПИ (UACN)
Данные METARUAKK 270330Z 18007MPS CAVOK M09/M14 Q1027 R23/3///50 NOSIG RMK QFE723/0964
Проноз погоды (TAF)UAKK 270115Z 2701/2724 16007MPS 9999 SCT030 BKN100 TXM06/2709Z TNM13/2717Z TEMPO 2701/2709 16010MPS SCT015 BKN030 TEMPO 2709/2715 14005MPS BECMG 2715/2717 10006MPS TEMPO 2720/2724 -SHSN BKN020CB
NOTAMshow/hide NOTAM
AWOS   TABLE

Информация о ВПП

ВПП Длина ВПП (м.) Покрытие Курс ВПП Частота ILS
053601Железобетон50109.9
233601Железобетон230111.7

Диспетчерские позиции




Спутниковое изображение